Location: Casilda
(33.0440°S, 61.1680°W)
Time: 08:24:37
(UTC-03:00)

ISS - Pass Details

Date: 19 September 2021
Orbit: 417 x 422 km, 51.6° (Epoch: 28 September)

Event Time Altitude Azimuth Distance (km) Brightness Sun altitude
Rises 06:25:55 0° 331° (NNW) 2,377 -0.2 -7.5°
Reaches altitude 10° 06:28:05 10° 339° (NNW) 1,518 -1.2 -7.1°
Maximum altitude 06:31:17 38° 49° (NE) 669 -2.2 -6.4°
Drops below altitude 10° 06:34:32 10° 118° (ESE) 1,533 0.3 -5.7°
Sets 06:36:44 0° 126° (SE) 2,405 1.1 -5.3°
